Regional Weather Roundup
Issued by NWS

Home | Current Version | Previous Version | Text Only | Print | Product List | Glossary Off
Versions: 1 2 3 4 5 6 7 8 9 10 11 12 13 14 15 16 17 18 19 20 21 22 23 24 25 26 27 28 29 30 31 32 33 34 35 36 37 38 39 40 41 42 43 44 45 46 47 48 49 50

000
ASUS43 KLSX 012107
RWRMO

WEATHER SUMMARY FOR MISSOURI
NATIONAL WEATHER SERVICE SPRINGFIELD MO
400 PM CDT WED APR 01 2015

NOTE: "FAIR" INDICATES FEW OR NO CLOUDS BELOW 12,000 FEET WITH NO
       SIGNIFICANT WEATHER AND/OR OBSTRUCTIONS TO VISIBILITY.
       CURRENT SKY AND/OR WEATHER CONDITIONS ARE NOT AVAILABLE FOR
       CHILLICOTHE AND FARMINGTON.

MOZ001>031-035>038-043-044-053-054-012200-
...NORTHERN AND WESTERN MISSOURI...

CITY           SKY/WX    TMP DP  RH WIND       PRES   REMARKS
KANSAS CTY INT PTSUNNY   77  54  44 S24G30    29.73F
KANSAS C DTWN  LGT RAIN  81  53  37 S21G29    29.75F
LEE`S SUMMIT   PTSUNNY   76  53  44 S21G30    29.77F
ST JOSEPH      MOSUNNY   79  53  40 S24G32    29.71F
CHILLICOTHE      N/A     79  51  37 S22G31    29.76F
KIRKSVILLE     MOSUNNY   77  45  32 S24G30    29.81F

$$
MOZ066>068-077>081-088>096-101>105-012200-
...SOUTHWEST MISSOURI...

CITY           SKY/WX    TMP DP  RH WIND       PRES   REMARKS
SPRINGFIELD    LGT RAIN  62  59  90 SE22      29.83F
JOPLIN         MOSUNNY   69  62  78 SE8       29.82F

$$
MOZ032>034-039>042-045>050-055>058-069>072-012200-
...CENTRAL MISSOURI...

CITY           SKY/WX    TMP DP  RH WIND       PRES   REMARKS
COLUMBIA       PTSUNNY   74  44  34 S17G25    29.86F
JEFFERSON CITY CLOUDY    76  41  28 S16G24    29.86F
ROLLA          CLOUDY    71  42  35 S15       29.90S
SEDALIA        CLOUDY    72  53  51 S21G28    29.86S
WARRENSBURG    PTSUNNY   68  55  64 SE22      29.82F
OSAGE BEACH    CLOUDY    64  55  72 S16       29.93R

$$
MOZ051-052-059>065-012200-
...EAST CENTRAL MISSOURI...

CITY           SKY/WX    TMP DP  RH WIND       PRES   REMARKS
ST LOUIS INTL  PTSUNNY   78  37  22 SE21G30   29.92F
SPIRIT OF STL  PTSUNNY   77  36  22 SE17G24   29.89F
ST CHARLES     MOSUNNY   77  39  25 S23G29    29.91F

$$
MOZ072>076-082>087-097>100-106>115-012200-
...SOUTH CENTRAL AND SOUTHEAST MISSOURI...

CITY           SKY/WX    TMP DP  RH WIND       PRES   REMARKS
CAPE GIRARDEAU MOSUNNY   73  43  33 SE10      29.96F
FARMINGTON     PTSUNNY   73  39  29 SE12G22   29.98F
POPLAR BLUFF   CLOUDY    72  48  42 SE12      29.95F
WEST PLAINS    CLOUDY    66  54  65 SE8       29.94F

$$



USA.gov is the U.S. government's official web portal to all federal, state and local government web resources and services.